Tracking 28126 objects as of 2-Oct-2023
HD Live streaming from Space Station
objects crossing your sky now

SL-8 DEB

Track SL-8 DEB now!
10-day predictions


NORAD ID: 21179
Int'l Code: 1991-009AS
Perigee: 1,519.4 km
Apogee: 1,713.2 km
Inclination: 74.0 °
Period: 118.4 minutes
Semi major axis: 7987 km
RCS: 0.1608 m2 (medium)
Launch date: February 12, 1991
Source: Commonwealth of Independent States (former USSR) (CIS)
Launch site: PLESETSK MISSILE AND SPACE COMPLEX (PKMTR)

Note: This is SATELLITE DEBRIS
Your satellite tracking list
Your tracking list is empty




NASA's NSSDC Master Catalog

Two Line Element Set (TLE):
1 21179U 91009AS  23274.86501806  .00000086  00000-0  99216-3 0  9995
2 21179  73.9915  52.7100 0121354  83.0365  36.0964 12.16196403448942
Source of the keplerian elements: AFSPC